Flag for Canada Weather past 2 weeks in Fort Smith, Northwest Territories, Canada

Now
64 °F

Passing clouds.


Feels Like: 64 °F
Forecast: 58 / 83 °F
Wind: No wind

Location: Fort Smith

Current Time: Jul 26, 2014 at 5:32:00 AM

Latest Report: Jul 26, 2014 at 5:00 AM


Visibility: 15 mi

Pressure: 29.87 "Hg

Humidity: 68%

Dew point: 54 °F

Location of Fort SmithLocation

Historic Weather in Fort Smith — Graph

°F

Fort Smith temperature yesterday

Maximum temperature yesterday: 84 °F (at 3:00 PM)
Minimum temperature yesterday: 64 °F (at 3:00 AM)
Average temperature yesterday: 74 °F

Past Weeks' High & Low Weather Summary

 TemperatureHumidityPressure
High88 °F (Jul 14, 4:00 PM)100% (Jul 16, 1:00 AM)30.30 "Hg (Jul 16, 1:00 AM)
Low43 °F (Jul 12, 6:00 AM)22% (Jul 25, 3:00 PM)29.45 "Hg (Jul 19, 10:00 AM)
Average66 °F56%29.85 "Hg
* Reported Jul 11 4:00 AM — Jul 26 4:00 AM, Fort Smith, Weather by CustomWeather, © 2014

Note: Actual official high and low records may vary slightly from our data, if they occured in-between our weather recording intervals... More about our weather records

Advertising

Fort Smith weather history for previous 24 hours

 ConditionsComfort  
Time TempWeatherWind HumidityBarometerVisibility
4:00 AM
Jul 26
68 °FPassing clouds.No wind56%29.85 "Hg15 mi
3:00 AM70 °FPassing clouds.6 mph53%29.83 "Hg15 mi
2:00 AM72 °FPassing clouds.5 mph50%29.83 "Hg15 mi
1:00 AM72 °FPassing clouds.3 mph50%29.83 "Hg15 mi
12:00 AM68 °FPassing clouds.No wind49%29.82 "Hg15 mi
11:00 PM
Jul 25
70 °FPassing clouds.No wind46%29.80 "Hg15 mi
10:00 PM72 °FPassing clouds.No wind47%29.78 "Hg15 mi
9:00 PM81 °FPassing clouds.No wind30%29.76 "Hg15 mi
8:00 PM82 °FPassing clouds.5 mph28%29.75 "Hg15 mi
7:00 PM84 °FPassing clouds.10 mph29%29.73 "Hg15 mi
6:00 PM84 °FPassing clouds.9 mph27%29.72 "Hg15 mi
5:00 PM84 °FPassing clouds.12 mph25%29.72 "Hg15 mi
4:00 PM84 °FPassing clouds.5 mph23%29.71 "Hg15 mi
3:00 PM84 °FScattered clouds.6 mph22%29.71 "Hg15 mi
2:00 PM82 °FScattered clouds.8 mph26%29.70 "Hg15 mi
1:00 PM82 °FPartly sunny.6 mph35%29.70 "Hg15 mi
12:00 PM77 °FPartly sunny.3 mph51%29.69 "Hg15 mi
11:00 AM77 °FPartly sunny.3 mph54%29.68 "Hg15 mi
10:00 AM73 °FPartly sunny.3 mph57%29.67 "Hg15 mi
9:00 AM70 °FBroken clouds.3 mph69%29.67 "Hg15 mi
8:00 AM68 °FPartly sunny.No wind73%29.66 "Hg15 mi
7:00 AM64 °FPartly sunny.2 mph88%29.65 "Hg15 mi
6:00 AM64 °FPartly sunny.3 mph88%29.65 "Hg15 mi
5:00 AM68 °FPartly cloudy.No wind73%29.65 "Hg15 mi
Weather by CustomWeather, © 2014

See weather overviewHow to use our weather pages